User: anonymous   Login
Location: Unspecified
(0.0000°N, 0.0000°E)
Time: 04:36:39
(UTC+00:00)
Language:

Explorer 38 - Orbit

View from above orbital plane
View from above orbital plane
View from above satellite
View from above satellite

Ground track
Ground track

The orbit data is extracted from the following two-line orbital elements,

1  3307U 68055A   18020.39512133 -.00000010 +00000-0 +00000-0 0  9997
2  3307 120.8547 352.4331 0012059 191.3728 168.6602 06.42547630162310
Epoch (UTC): 20 January 2018 09:28:58
Eccentricity: 0.0012059
inclination: 120.8547°
perigee height: 5829 km
apogee height: 5858 km
right ascension of ascending node: 352.4331°
argument of perigee: 191.3728°
revolutions per day: 6.42547630
mean anomaly at epoch: 168.6602°
orbit number at epoch: 16231

The dashed part of the orbit path shows where the satellite is in the earth's shadow,  

DLR